Homestead AFB, FL

9:46 PM EDT on July 24, 2017 (GMT -0400)
Dade County-Homestead Regional

Weather History for KHST - November, 2012

Change the Weather History Date:

Saturday, November 24, 2012

  Actual Average Record
Temperature  
Mean Temperature 64 °F -  
Max Temperature 74 °F 78 °F 87 °F (1947)
Min Temperature 53 °F 59 °F 39 °F (1944)
Degree Days  
Heating Degree Days 2    
Growing Degree Days 14 (Base 50)    
Moisture  
Dew Point 53 °F    
Average Humidity 70    
Maximum Humidity 94    
Minimum Humidity 48    
Precipitation  
Precipitation 0.00 in - - ()
Sea Level Pressure  
Sea Level Pressure 30.08 in    
Wind  
Wind Speed 7 mph (NW)    
Max Wind Speed 20 mph    
Max Gust Speed 24 mph    
Visibility 10 miles    
Events Rain    
Averages and records for this station are not official NWS values.
T = Trace of Precipitation, MM = Missing Value Source: NWS Daily Summary

Daily Weather History Graph

Daily Weather History Graph

Search for Another Location

Airport or City:

Trip Planner

Search our weather history database for the weather conditions in past years. The results will help you decide how hot, cold, wet, or windy it might be!

Date:

Astronomy

Nov. 24, 2012 Rise Set
Actual Time 6:45 AM EST 5:30 PM EST
Civil Twilight 6:21 AM EST 5:55 PM EST
Nautical Twilight 5:53 AM EST 6:23 PM EST
Astronomical Twilight 5:25 AM EST 6:51 PM EST
Moon 3:00 PM EST (11/24) 3:18 AM EST (11/24)
Length of Visible Light 11h 34m
Length of Day
10h 45m
Waxing Gibbous, 87% of the Moon is Illuminated
Nov 24
Waxing Gibbous
Nov 28
Full
Dec 6
Last Quarter
Dec 13
New
Dec 20
First Quarter

Hourly Weather History & Observations

Time (EST) Temp. Dew Point Humidity Pressure Visibility Wind Dir Wind Speed Gust Speed Precip Events Conditions
12:55 AM 58.5 °F 52.0 °F 79% 30.09 in 10.0 mi NNW 8.1 mph - N/A   Clear
1:55 AM 56.8 °F 51.1 °F 81% 30.09 in 10.0 mi WNW 4.6 mph - N/A   Clear
2:55 AM 56.7 °F 51.6 °F 83% 30.08 in 10.0 mi NW 3.5 mph - N/A   Clear
3:55 AM 54.7 °F 50.0 °F 84% 30.08 in 10.0 mi NNW 6.9 mph - N/A   Clear
4:55 AM 54.3 °F 48.4 °F 80% 30.08 in 10.0 mi NNW 5.8 mph - N/A   Clear
5:55 AM 53.6 °F 46.9 °F 78% 30.09 in 10.0 mi NNW 6.9 mph - N/A   Clear
6:55 AM 53.2 °F 46.4 °F 78% 30.12 in 10.0 mi NW 5.8 mph - N/A   Clear
7:55 AM 56.8 °F 47.7 °F 71% 30.12 in 10.0 mi NNW 11.5 mph - N/A   Clear
8:55 AM 62.4 °F 49.8 °F 63% 30.14 in 10.0 mi NNW 13.8 mph - N/A   Clear
9:55 AM 68.0 °F 52.3 °F 57% 30.14 in 10.0 mi NNW 18.4 mph 23.0 mph N/A   Clear
10:55 AM 70.7 °F 52.9 °F 53% 30.13 in 10.0 mi NNW 19.6 mph 24.2 mph N/A   Clear
11:55 AM 72.3 °F 53.6 °F 52% 30.11 in 10.0 mi NNW 13.8 mph - N/A   Clear
12:55 PM 73.0 °F 53.2 °F 50% 30.07 in 10.0 mi NW 13.8 mph - N/A   Clear
1:55 PM 74.5 °F 54.0 °F 49% 30.05 in 10.0 mi NNW 15.0 mph - N/A   Clear
2:55 PM 74.3 °F 53.4 °F 48% 30.04 in 10.0 mi NW 13.8 mph - N/A   Clear
3:55 PM 73.9 °F 53.4 °F 49% 30.03 in 10.0 mi West 8.1 mph - N/A   Clear
4:55 PM 72.5 °F 52.7 °F 50% 30.04 in 10.0 mi NW 6.9 mph - N/A   Clear
5:55 PM 69.4 °F 52.7 °F 55% 30.04 in 10.0 mi Calm Calm - N/A   Clear
6:06 PM 66.2 °F 57.2 °F 73% 30.05 in 9.0 mi Calm Calm - N/A Rain Light Rain
6:15 PM 64.4 °F 57.2 °F 77% 30.05 in 10.0 mi Calm Calm - N/A   Clear
6:55 PM 61.5 °F 56.7 °F 84% 30.06 in 10.0 mi Calm Calm - 0.00 in   Clear
7:55 PM 62.4 °F 54.3 °F 75% 30.07 in 10.0 mi West 6.9 mph - N/A   Clear
8:55 PM 61.0 °F 56.3 °F 85% 30.08 in 10.0 mi Calm Calm - N/A   Clear
9:55 PM 59.4 °F 56.8 °F 91% 30.09 in 10.0 mi SW 4.6 mph - N/A   Clear
10:55 PM 59.2 °F 57.4 °F 94% 30.10 in 10.0 mi Calm Calm - N/A   Clear
11:55 PM 59.7 °F 57.7 °F 93% 30.10 in 10.0 mi Calm Calm - N/A   Clear